Year,Month,Day,Hour,Minute,Value (Times are PST for temperature in C)
2009,09,15,12,44,19.40
2009,09,15,12,47,19.20
2009,09,15,12,48,19.10
2009,09,15,12,49,19.00
2009,09,15,12,50,19.00
2009,09,15,12,51,19.00
2009,09,15,12,52,19.00
2009,09,15,12,53,19.10
2009,09,15,12,54,19.10
2009,09,15,12,55,19.10
2009,09,15,12,56,19.10
2009,09,15,12,57,19.20
2009,09,15,12,58,19.30
2009,09,15,12,59,19.30
2009,09,15,13,00,19.40
2009,09,15,13,01,19.40
2009,09,15,13,02,19.50
2009,09,15,13,03,19.40
2009,09,15,13,04,19.30
2009,09,15,13,05,19.30
2009,09,15,13,06,19.40
2009,09,15,13,07,19.40
2009,09,15,13,08,19.40
2009,09,15,13,09,19.30
2009,09,15,13,10,19.20
2009,09,15,13,11,19.30
2009,09,15,13,12,19.30
2009,09,15,13,13,19.30
2009,09,15,13,14,19.30
2009,09,15,13,15,19.20
2009,09,15,13,16,19.30
2009,09,15,13,17,19.30
2009,09,15,13,18,19.30
2009,09,15,13,19,19.40
2009,09,15,13,20,19.40
2009,09,15,13,21,19.40
2009,09,15,13,22,19.40
2009,09,15,13,23,19.40
2009,09,15,13,24,19.40
2009,09,15,13,25,19.40
2009,09,15,13,26,19.50
2009,09,15,13,27,19.50
2009,09,15,13,28,19.50
2009,09,15,13,29,19.40
2009,09,15,13,30,19.40
2009,09,15,13,31,19.40
2009,09,15,13,32,19.40
2009,09,15,13,33,19.40
2009,09,15,13,34,19.50
2009,09,15,13,35,19.60
2009,09,15,13,36,19.70
2009,09,15,13,37,19.70
2009,09,15,13,38,19.80
2009,09,15,13,39,19.80
2009,09,15,13,40,19.90
2009,09,15,13,41,19.90
2009,09,15,13,42,19.80
2009,09,15,13,43,19.80
2009,09,15,13,44,19.70
2009,09,15,13,45,19.80
2009,09,15,13,46,19.90
2009,09,15,13,47,19.90
2009,09,15,13,48,19.90
2009,09,15,13,49,19.90
2009,09,15,13,50,19.80
2009,09,15,13,51,19.80
2009,09,15,13,52,19.80
2009,09,15,13,53,19.80
2009,09,15,13,54,19.80
2009,09,15,13,55,19.70
2009,09,15,13,56,19.70
2009,09,15,13,57,19.70
2009,09,15,13,58,19.60
2009,09,15,13,59,19.70
2009,09,15,14,00,19.80
2009,09,15,14,01,19.70
2009,09,15,14,02,19.70
2009,09,15,14,03,19.70
2009,09,15,14,04,19.70
2009,09,15,14,05,19.80
2009,09,15,14,06,19.90
2009,09,15,14,07,20.00
2009,09,15,14,08,20.10
2009,09,15,14,09,20.10
2009,09,15,14,10,20.10
2009,09,15,14,11,20.20
2009,09,15,14,12,20.10
2009,09,15,14,13,20.10
2009,09,15,14,14,20.10
2009,09,15,14,15,20.00
2009,09,15,14,16,19.90
2009,09,15,14,17,19.90
2009,09,15,14,18,19.90
2009,09,15,14,19,19.80
2009,09,15,14,20,19.70
2009,09,15,14,21,19.60
2009,09,15,14,22,19.50
2009,09,15,14,23,19.40
2009,09,15,14,24,19.50
2009,09,15,14,25,19.60
2009,09,15,14,26,19.60
2009,09,15,14,27,19.70
2009,09,15,14,28,19.70
2009,09,15,14,29,19.90
2009,09,15,14,30,20.00
2009,09,15,14,31,20.10
2009,09,15,14,32,20.20
2009,09,15,14,33,20.20
2009,09,15,14,34,20.30
2009,09,15,14,35,20.30
2009,09,15,14,36,20.30
2009,09,15,14,37,20.40
2009,09,15,14,38,20.40
2009,09,15,14,39,20.40
2009,09,15,14,40,20.30
2009,09,15,14,41,20.30
2009,09,15,14,42,20.40
2009,09,15,14,43,20.40
2009,09,15,14,44,20.50
2009,09,15,14,45,20.60
2009,09,15,14,46,20.60
2009,09,15,14,47,20.70
2009,09,15,14,48,20.80
2009,09,15,14,49,20.90
2009,09,15,14,50,20.80
2009,09,15,14,51,20.70
2009,09,15,14,52,20.70
2009,09,15,14,53,20.70
2009,09,15,14,54,20.60
2009,09,15,14,55,20.50
2009,09,15,14,56,20.50
2009,09,15,14,57,20.40
2009,09,15,14,58,20.40
2009,09,15,14,59,20.40
2009,09,15,15,00,20.40
2009,09,15,15,01,20.40
2009,09,15,15,02,20.30
2009,09,15,15,03,20.40
2009,09,15,15,04,20.40
2009,09,15,15,05,20.30
2009,09,15,15,06,20.20
2009,09,15,15,07,20.10
2009,09,15,15,08,20.00
2009,09,15,15,09,19.90
2009,09,15,15,10,19.90
2009,09,15,15,11,19.90
2009,09,15,15,12,19.90
2009,09,15,15,13,19.90
2009,09,15,15,14,19.80
2009,09,15,15,15,19.80
2009,09,15,15,16,19.80
2009,09,15,15,17,19.80
2009,09,15,15,18,19.80
2009,09,15,15,19,19.80
2009,09,15,15,20,19.80
2009,09,15,15,21,19.80
2009,09,15,15,22,19.90
2009,09,15,15,23,19.90
2009,09,15,15,24,20.00
2009,09,15,15,25,20.10
2009,09,15,15,26,20.10
2009,09,15,15,27,20.10
2009,09,15,15,28,20.20
2009,09,15,15,29,20.20
2009,09,15,15,30,20.20
2009,09,15,15,31,20.30
2009,09,15,15,32,20.30
2009,09,15,15,33,20.30
2009,09,15,15,34,20.40
2009,09,15,15,35,20.40
2009,09,15,15,36,20.40
2009,09,15,15,37,20.50
2009,09,15,15,38,20.50
2009,09,15,15,39,20.40
2009,09,15,15,40,20.40
2009,09,15,15,41,20.40
2009,09,15,15,42,20.40
2009,09,15,15,43,20.40
2009,09,15,15,44,20.30
2009,09,15,15,45,20.30
2009,09,15,15,46,20.30
2009,09,15,15,47,20.30
2009,09,15,15,48,20.40
2009,09,15,15,49,20.40
2009,09,15,15,50,20.40
2009,09,15,15,51,20.40
2009,09,15,15,52,20.40
2009,09,15,15,53,20.40
2009,09,15,15,54,20.40
2009,09,15,15,55,20.40
2009,09,15,15,56,20.50
2009,09,15,15,57,20.50
2009,09,15,15,58,20.50
2009,09,15,15,59,20.60
2009,09,15,16,00,20.60
2009,09,15,16,01,20.70
2009,09,15,16,02,20.80
2009,09,15,16,03,20.80
2009,09,15,16,04,20.90
2009,09,15,16,05,20.90
2009,09,15,16,06,20.90
2009,09,15,16,07,20.90
2009,09,15,16,08,20.90
2009,09,15,16,09,20.90
2009,09,15,16,10,21.00
2009,09,15,16,11,21.00
2009,09,15,16,12,21.00
2009,09,15,16,13,20.90
2009,09,15,16,14,20.80
2009,09,15,16,15,20.80
2009,09,15,16,16,20.70
2009,09,15,16,17,20.70
2009,09,15,16,18,20.60
2009,09,15,16,19,20.60
2009,09,15,16,20,20.60
2009,09,15,16,21,20.70
2009,09,15,16,22,20.70
2009,09,15,16,23,20.70
2009,09,15,16,24,20.70
2009,09,15,16,25,20.60
2009,09,15,16,26,20.60
2009,09,15,16,27,20.60
2009,09,15,16,28,20.60
2009,09,15,16,29,20.60
2009,09,15,16,30,20.70
2009,09,15,16,31,20.70
2009,09,15,16,32,20.60
2009,09,15,16,33,20.60
2009,09,15,16,34,20.60
2009,09,15,16,35,20.60
2009,09,15,16,36,20.70
2009,09,15,16,37,20.70
2009,09,15,16,38,20.80
2009,09,15,16,39,20.80
2009,09,15,16,40,20.80
2009,09,15,16,41,20.80
2009,09,15,16,42,20.80
2009,09,15,16,43,20.80
2009,09,15,16,44,20.80
2009,09,15,16,45,20.80
2009,09,15,16,46,20.80
2009,09,15,16,47,20.80
2009,09,15,16,48,20.80
2009,09,15,16,49,20.70
2009,09,15,16,50,20.70
2009,09,15,16,51,20.60
2009,09,15,16,52,20.70
2009,09,15,16,53,20.80
2009,09,15,16,54,20.80
2009,09,15,16,55,20.80
2009,09,15,16,56,20.90
2009,09,15,16,57,20.90
2009,09,15,16,58,20.90
2009,09,15,16,59,20.80
2009,09,15,17,00,20.80
2009,09,15,17,01,20.80
2009,09,15,17,02,20.80
2009,09,15,17,03,20.90
2009,09,15,17,04,20.90
2009,09,15,17,05,20.90
2009,09,15,17,06,20.90
2009,09,15,17,07,20.90
2009,09,15,17,08,20.90
2009,09,15,17,09,20.90
2009,09,15,17,10,20.90
2009,09,15,17,11,21.00
2009,09,15,17,12,21.00
2009,09,15,17,13,21.00
2009,09,15,17,14,20.90
2009,09,15,17,15,21.00
2009,09,15,17,16,21.10
2009,09,15,17,17,21.00
2009,09,15,17,18,21.00
2009,09,15,17,19,21.00
2009,09,15,17,20,20.90
2009,09,15,17,21,20.90
2009,09,15,17,22,20.90
2009,09,15,17,23,20.90
2009,09,15,17,24,20.90
2009,09,15,17,25,20.90
2009,09,15,17,26,20.90
2009,09,15,17,27,20.90
2009,09,15,17,28,20.90
2009,09,15,17,29,20.90
2009,09,15,17,30,20.90
2009,09,15,17,31,20.80
2009,09,15,17,32,20.80
2009,09,15,17,33,20.80
2009,09,15,17,34,20.80
2009,09,15,17,35,20.80
2009,09,15,17,36,20.80
2009,09,15,17,37,20.80
2009,09,15,17,38,20.70
2009,09,15,17,39,20.70
2009,09,15,17,40,20.80
2009,09,15,17,41,20.80
2009,09,15,17,42,20.80
2009,09,15,17,43,20.80
2009,09,15,17,44,20.80
2009,09,15,17,45,20.80
2009,09,15,17,46,20.80
2009,09,15,17,47,20.80
2009,09,15,17,48,20.80
2009,09,15,17,49,20.80
2009,09,15,17,50,20.70
2009,09,15,17,51,20.70
2009,09,15,17,52,20.70
2009,09,15,17,53,20.70
2009,09,15,17,54,20.70
2009,09,15,17,55,20.70
2009,09,15,17,56,20.70
2009,09,15,17,57,20.70
2009,09,15,17,58,20.70
2009,09,15,17,59,20.70
2009,09,15,18,00,20.70
2009,09,15,18,01,20.70
2009,09,15,18,02,20.70
2009,09,15,18,03,20.80
2009,09,15,18,04,20.80
2009,09,15,18,05,20.70
2009,09,15,18,06,20.70
2009,09,15,18,07,20.70
2009,09,15,18,08,20.80
2009,09,15,18,09,20.80
2009,09,15,18,10,20.80
2009,09,15,18,11,20.80
2009,09,15,18,12,20.80
2009,09,15,18,13,20.80
2009,09,15,18,14,20.80
2009,09,15,18,15,20.80
2009,09,15,18,16,20.80
2009,09,15,18,17,20.80
2009,09,15,18,18,20.80
2009,09,15,18,19,20.80
2009,09,15,18,20,20.80
2009,09,15,18,21,20.80
2009,09,15,18,22,20.80
2009,09,15,18,23,20.80
2009,09,15,18,24,20.80
2009,09,15,18,25,20.80
2009,09,15,18,26,20.80
2009,09,15,18,27,20.80
2009,09,15,18,28,20.80
2009,09,15,18,29,20.80
2009,09,15,18,30,20.80
2009,09,15,18,31,20.80
2009,09,15,18,32,20.80
2009,09,15,18,33,20.80
2009,09,15,18,34,20.70
2009,09,15,18,35,20.70
2009,09,15,18,36,20.70
2009,09,15,18,37,20.70
2009,09,15,18,38,20.70
2009,09,15,18,39,20.60
2009,09,15,18,40,20.60
2009,09,15,18,41,20.60
2009,09,15,18,42,20.50
2009,09,15,18,43,20.50
2009,09,15,18,44,20.50
2009,09,15,18,45,20.40
2009,09,15,18,46,20.40
2009,09,15,18,47,20.40
2009,09,15,18,48,20.40
2009,09,15,18,49,20.40
2009,09,15,18,50,20.40
2009,09,15,18,51,20.40
2009,09,15,18,52,20.40
2009,09,15,18,53,20.40
2009,09,15,18,54,20.30
2009,09,15,18,55,20.30
2009,09,15,18,56,20.30
2009,09,15,18,57,20.30
2009,09,15,18,58,20.30
2009,09,15,18,59,20.30
2009,09,15,19,00,20.30
2009,09,15,19,01,20.30
2009,09,15,19,02,20.30
2009,09,15,19,03,20.30
2009,09,15,19,04,20.30
2009,09,15,19,05,20.30
2009,09,15,19,06,20.30
2009,09,15,19,07,20.20
2009,09,15,19,08,20.20
2009,09,15,19,09,20.20
2009,09,15,19,10,20.20
2009,09,15,19,11,20.20
2009,09,15,19,12,20.10
2009,09,15,19,13,20.10
2009,09,15,19,14,20.10
2009,09,15,19,15,20.10
2009,09,15,19,16,20.10
2009,09,15,19,17,20.00
2009,09,15,19,18,20.00
2009,09,15,19,19,19.90
2009,09,15,19,20,19.90
2009,09,15,19,21,19.90
2009,09,15,19,22,19.90
2009,09,15,19,23,19.80
2009,09,15,19,24,19.80
2009,09,15,19,25,19.80
2009,09,15,19,26,19.70
2009,09,15,19,27,19.70
2009,09,15,19,28,19.80
2009,09,15,19,29,19.70
2009,09,15,19,30,19.70
2009,09,15,19,31,19.70
2009,09,15,19,32,19.70
2009,09,15,19,33,19.70
2009,09,15,19,34,19.60
2009,09,15,19,35,19.60
2009,09,15,19,36,19.60
2009,09,15,19,37,19.60
2009,09,15,19,38,19.50
2009,09,15,19,39,19.50
2009,09,15,19,40,19.50
2009,09,15,19,41,19.50
2009,09,15,19,42,19.50
2009,09,15,19,43,19.50
2009,09,15,19,44,19.50
2009,09,15,19,45,19.50
2009,09,15,19,46,19.40
2009,09,15,19,47,19.40
2009,09,15,19,48,19.40
2009,09,15,19,49,19.40
2009,09,15,19,50,19.40
2009,09,15,19,51,19.30
2009,09,15,19,52,19.30
2009,09,15,19,53,19.30
2009,09,15,19,54,19.30
2009,09,15,19,55,19.30
2009,09,15,19,56,19.30
2009,09,15,19,57,19.30
2009,09,15,19,58,19.30
2009,09,15,19,59,19.30
2009,09,15,20,00,19.30
2009,09,15,20,01,19.30
2009,09,15,20,02,19.30
2009,09,15,20,03,19.30
2009,09,15,20,04,19.30
2009,09,15,20,05,19.30
2009,09,15,20,06,19.30
2009,09,15,20,07,19.30
2009,09,15,20,08,19.30
2009,09,15,20,09,19.30
2009,09,15,20,10,19.20
2009,09,15,20,11,19.20
2009,09,15,20,12,19.30
2009,09,15,20,13,19.30
2009,09,15,20,14,19.30
2009,09,15,20,15,19.20
2009,09,15,20,16,19.20
2009,09,15,20,17,19.20
2009,09,15,20,18,19.20
2009,09,15,20,19,19.30
2009,09,15,20,20,19.30
2009,09,15,20,21,19.30
2009,09,15,20,22,19.30
2009,09,15,20,23,19.30
2009,09,15,20,24,19.20
2009,09,15,20,25,19.20
2009,09,15,20,26,19.20
2009,09,15,20,27,19.20
2009,09,15,20,28,19.20
2009,09,15,20,29,19.20
2009,09,15,20,30,19.20
2009,09,15,20,31,19.20
2009,09,15,20,32,19.20
2009,09,15,20,33,19.30
2009,09,15,20,34,19.30
2009,09,15,20,35,19.30
2009,09,15,20,36,19.30
2009,09,15,20,37,19.20
2009,09,15,20,38,19.20
2009,09,15,20,39,19.20
2009,09,15,20,40,19.20
2009,09,15,20,41,19.20
2009,09,15,20,42,19.20
2009,09,15,20,43,19.20
2009,09,15,20,44,19.30
2009,09,15,20,45,19.30
2009,09,15,20,46,19.30
2009,09,15,20,47,19.30
2009,09,15,20,48,19.30
2009,09,15,20,49,19.30
2009,09,15,20,50,19.30
2009,09,15,20,51,19.30
2009,09,15,20,52,19.30
2009,09,15,20,53,19.30
2009,09,15,20,54,19.30
2009,09,15,20,55,19.30
2009,09,15,20,56,19.30
2009,09,15,20,57,19.40
2009,09,15,20,58,19.40
2009,09,15,20,59,19.50
2009,09,15,21,00,19.50
2009,09,15,21,01,19.60
2009,09,15,21,02,19.60
2009,09,15,21,03,19.60
2009,09,15,21,04,19.70
2009,09,15,21,05,19.70
2009,09,15,21,06,19.70
2009,09,15,21,07,19.80
2009,09,15,21,08,19.80
2009,09,15,21,09,19.80
2009,09,15,21,10,19.90
2009,09,15,21,11,19.90
2009,09,15,21,12,20.00
2009,09,15,21,13,20.00
2009,09,15,21,14,20.00
2009,09,15,21,15,20.00
2009,09,15,21,16,20.00
2009,09,15,21,17,20.00
2009,09,15,21,18,20.00
2009,09,15,21,19,20.00
2009,09,15,21,20,20.00
2009,09,15,21,21,20.00
2009,09,15,21,22,20.00
2009,09,15,21,23,20.00
2009,09,15,21,24,20.00
2009,09,15,21,25,20.10
2009,09,15,21,26,20.10
2009,09,15,21,27,20.10
2009,09,15,21,28,20.10
2009,09,15,21,29,20.10
2009,09,15,21,30,20.10
2009,09,15,21,31,20.10
2009,09,15,21,32,20.20
2009,09,15,21,33,20.20
2009,09,15,21,34,20.20
2009,09,15,21,35,20.20
2009,09,15,21,36,20.20
2009,09,15,21,37,20.30
2009,09,15,21,38,20.30
2009,09,15,21,39,20.30
2009,09,15,21,40,20.30
2009,09,15,21,41,20.30
2009,09,15,21,42,20.30
2009,09,15,21,43,20.30
2009,09,15,21,44,20.30
2009,09,15,21,45,20.30
2009,09,15,21,46,20.20
2009,09,15,21,47,20.20
2009,09,15,21,48,20.20
2009,09,15,21,49,20.20
2009,09,15,21,50,20.20
2009,09,15,21,51,20.20
2009,09,15,21,52,20.10
2009,09,15,21,53,20.10
2009,09,15,21,54,20.10
2009,09,15,21,55,20.00
2009,09,15,21,56,20.00
2009,09,15,21,57,20.00
2009,09,15,21,58,19.90
2009,09,15,21,59,19.90
2009,09,15,22,00,19.90
2009,09,15,22,01,19.80
2009,09,15,22,02,19.80
2009,09,15,22,03,19.80
2009,09,15,22,04,19.80
2009,09,15,22,05,19.80
2009,09,15,22,06,19.70
2009,09,15,22,07,19.70
2009,09,15,22,08,19.70
2009,09,15,22,09,19.70
2009,09,15,22,10,19.70
2009,09,15,22,11,19.70
2009,09,15,22,12,19.70
2009,09,15,22,13,19.70
2009,09,15,22,14,19.70
2009,09,15,22,15,19.80
2009,09,15,22,16,19.80
2009,09,15,22,17,19.80
2009,09,15,22,18,19.80
2009,09,15,22,19,19.80
2009,09,15,22,20,19.80
2009,09,15,22,21,19.80
2009,09,15,22,22,19.80
2009,09,15,22,23,19.80
2009,09,15,22,24,19.80
2009,09,15,22,25,19.80
2009,09,15,22,26,19.80
2009,09,15,22,27,19.80
2009,09,15,22,28,19.80
2009,09,15,22,29,19.70
2009,09,15,22,30,19.70
2009,09,15,22,31,19.70
2009,09,15,22,32,19.60
2009,09,15,22,33,19.60
2009,09,15,22,34,19.50
2009,09,15,22,35,19.50
2009,09,15,22,36,19.50
2009,09,15,22,37,19.40
2009,09,15,22,38,19.30
2009,09,15,22,39,19.30
2009,09,15,22,40,19.20
2009,09,15,22,41,19.10
2009,09,15,22,42,19.00
2009,09,15,22,43,18.90
2009,09,15,22,44,18.70
2009,09,15,22,45,18.60
2009,09,15,22,46,18.40
2009,09,15,22,47,18.10
2009,09,15,22,48,17.80
2009,09,15,22,49,17.50
2009,09,15,22,50,17.30
2009,09,15,22,51,17.00
2009,09,15,22,52,16.80
2009,09,15,22,53,16.60
2009,09,15,22,54,16.40
2009,09,15,22,55,16.20
2009,09,15,22,56,16.10
2009,09,15,22,57,16.00
2009,09,15,22,58,15.90
2009,09,15,22,59,15.80
2009,09,15,23,00,15.80
2009,09,15,23,01,15.70
2009,09,15,23,02,15.70
2009,09,15,23,03,15.70
2009,09,15,23,04,15.70
2009,09,15,23,05,15.70
2009,09,15,23,06,15.70
2009,09,15,23,07,15.70
2009,09,15,23,08,15.70
2009,09,15,23,09,15.70
2009,09,15,23,10,15.70
2009,09,15,23,11,15.70
2009,09,15,23,12,15.80
2009,09,15,23,13,15.80
2009,09,15,23,14,15.80
2009,09,15,23,15,15.80
2009,09,15,23,16,15.80
2009,09,15,23,17,15.80
2009,09,15,23,18,15.80
2009,09,15,23,19,15.80
2009,09,15,23,20,15.80
2009,09,15,23,21,15.80
2009,09,15,23,22,15.80
2009,09,15,23,23,15.80
2009,09,15,23,24,15.70
2009,09,15,23,25,15.70
2009,09,15,23,26,15.70
2009,09,15,23,27,15.70
2009,09,15,23,28,15.60
2009,09,15,23,29,15.60
2009,09,15,23,30,15.60
2009,09,15,23,31,15.50
2009,09,15,23,32,15.50
2009,09,15,23,33,15.40
2009,09,15,23,34,15.40
2009,09,15,23,35,15.40
2009,09,15,23,36,15.30
2009,09,15,23,37,15.30
2009,09,15,23,38,15.30
2009,09,15,23,39,15.30
2009,09,15,23,40,15.30
2009,09,15,23,41,15.40
2009,09,15,23,42,15.40
2009,09,15,23,43,15.40
2009,09,15,23,44,15.40
2009,09,15,23,45,15.40
2009,09,15,23,46,15.40
2009,09,15,23,47,15.40
2009,09,15,23,48,15.40
2009,09,15,23,49,15.50
2009,09,15,23,50,15.50
2009,09,15,23,51,15.50
2009,09,15,23,52,15.50
2009,09,15,23,53,15.60
2009,09,15,23,54,15.70
2009,09,15,23,55,15.90
2009,09,15,23,56,16.10
2009,09,15,23,57,16.20
2009,09,15,23,58,16.30
2009,09,15,23,59,16.40
